Flag Weather past 2 weeks in Perth, Western Australia, Australia

Now
66 °F

Passing clouds.


Feels Like: 66 °F
Forecast: 62 / 75 °F
Wind: 14 mph from Southwest

Location: Belmont Perth Airport

Current Time: Nov 28, 2014 at 11:18:44 PM

Latest Report: Nov 28, 2014 at 11:00 PM


Visibility: N/A

Pressure: 29.92 "Hg

Humidity: 78%

Dew point: 59 °F

Location of PerthLocation

Historic Weather in Perth — Graph

°F

Perth temperature yesterday

Maximum temperature yesterday: 79 °F (at 1:00 PM)
Minimum temperature yesterday: 66 °F (at 6:00 AM)
Average temperature yesterday: 72 °F

Past Weeks' High & Low Weather Summary

 TemperatureHumidityPressure
High93 °F (Nov 25, 2:00 PM)94% (Nov 16, 10:30 PM)30.36 "Hg (Nov 16, 10:30 PM)
Low48 °F (Nov 14, 2:30 AM)13% (Nov 25, 4:00 PM)29.71 "Hg (Nov 26, 2:58 PM)
Average67 °F57%29.95 "Hg
* Reported Nov 13 10:00 PM — Nov 28 10:00 PM, Perth, Weather by CustomWeather, © 2014

Note: Actual official high and low records may vary slightly from our data, if they occured in-between our weather recording intervals... More about our weather records

Advertising

Perth weather history for previous 24 hours

 ConditionsComfort  
Time TempWeatherWind HumidityBarometerVisibility
10:00 PM
Nov 28
66 °FPassing clouds.13 mph78%29.92 "HgN/A
9:30 PM66 °FPassing clouds.13 mph83%29.92 "HgN/A
9:00 PM66 °FPassing clouds.14 mph83%29.92 "HgN/A
8:30 PM66 °FMostly cloudy.16 mph83%29.92 "HgN/A
8:00 PM68 °FMostly cloudy.15 mph78%29.92 "HgN/A
7:30 PM68 °FMostly cloudy.15 mph78%29.92 "HgN/A
7:00 PM68 °FMostly cloudy.13 mph78%29.89 "HgN/A
6:30 PM68 °FMostly cloudy.15 mph73%29.89 "HgN/A
6:00 PM68 °FScattered showers. Broken clouds.15 mph73%29.89 "HgN/A
5:30 PM70 °FSprinkles. Broken clouds.13 mph69%29.89 "HgN/A
5:00 PM70 °FPartly sunny.17 mph64%29.86 "HgN/A
4:30 PM72 °FPartly sunny.18 mph65%29.86 "HgN/A
4:00 PM72 °FPartly sunny.16 mph65%29.86 "HgN/A
3:30 PM72 °FBroken clouds.16 mph65%29.83 "HgN/A
3:00 PM73 °FPartly sunny.17 mph61%29.83 "HgN/A
2:30 PM73 °FPartly sunny.16 mph61%29.83 "HgN/A
2:00 PM73 °FPartly sunny.16 mph61%29.83 "HgN/A
1:30 PM73 °FPartly sunny.14 mph65%29.83 "HgN/A
1:00 PM72 °FBroken clouds.15 mph69%29.86 "HgN/A
12:30 PM72 °FSprinkles. Broken clouds.15 mph73%29.86 "HgN/A
12:00 PM72 °FBroken clouds.15 mph73%29.86 "HgN/A
11:30 AM73 °FBroken clouds.15 mph65%29.83 "HgN/A
11:00 AM73 °FPartly sunny.15 mph65%29.83 "HgN/A
10:30 AM73 °FScattered clouds.17 mph69%29.83 "HgN/A
9:30 AM73 °FPartly sunny.13 mph65%29.83 "HgN/A
9:00 AM73 °FPartly sunny.13 mph69%29.83 "HgN/A
8:30 AM72 °FScattered clouds.12 mph73%29.83 "HgN/A
8:00 AM72 °FPassing clouds.8 mph69%29.83 "HgN/A
7:30 AM72 °FPassing clouds.8 mph69%29.83 "HgN/A
7:00 AM68 °FSunny.6 mph78%29.80 "Hg10 mi
6:30 AM66 °FSunny.7 mph88%29.80 "Hg10 mi
6:00 AM66 °FSunny.6 mph83%29.80 "Hg10 mi
5:30 AM64 °FSunny.8 mph88%29.80 "Hg10 mi
5:00 AM63 °FSunny.6 mph94%29.80 "Hg10 mi
4:30 AM64 °FSunny.5 mph94%29.77 "Hg10 mi
4:00 AM66 °FClear.6 mph88%29.77 "Hg10 mi
3:30 AM66 °FClear.5 mph88%29.77 "Hg10 mi
3:00 AM66 °FClear.2 mph88%29.77 "Hg10 mi
2:30 AM66 °FClear.5 mph88%29.77 "Hg10 mi
2:00 AM66 °FClear.6 mph94%29.77 "Hg10 mi
1:30 AM68 °FClear.7 mph83%29.77 "Hg10 mi
1:00 AM68 °FClear.7 mph78%29.80 "Hg10 mi
12:30 AM68 °FClear.5 mph83%29.80 "Hg10 mi
12:00 AM66 °FClear.1 mph88%29.80 "Hg10 mi
11:30 PM
Nov 27
68 °FPassing clouds.3 mph83%29.80 "HgN/A
11:00 PM70 °FPassing clouds.5 mph83%29.80 "HgN/A
Weather by CustomWeather, © 2014

See weather overviewHow to use our weather pages